Flag for Australia Weather past 2 weeks in Brisbane, Queensland, Australia

Now
66 °F

Passing clouds.


Feels Like: 66 °F
Forecast: 40 / 76 °F
Wind: 8 mph from West

Location: Brisbane Airport M. O

Current Time: Sep 1, 2015 at 10:33:38 AM

Latest Report: Sep 1, 2015 at 10:00 AM


Visibility: N/A

Pressure: 30.04 "Hg

Humidity: 37%

Dew point: 39 °F

Location of BrisbaneLocation

Historic Weather in Brisbane — Graph

°F

Brisbane temperature yesterday

Maximum temperature yesterday: 70 °F (at 12:00 PM)
Minimum temperature yesterday: 48 °F (at 6:00 AM)
Average temperature yesterday: 61 °F

Past Weeks' High & Low Weather Summary

 TemperatureHumidityPressure
High79 °F (Aug 25, 12:00 PM)100% (Aug 17, 11:00 PM)30.33 "Hg (Aug 17, 11:00 PM)
Low48 °F (Aug 18, 6:30 AM)25% (Aug 30, 4:00 PM)29.89 "Hg (Aug 31, 4:00 PM)
Average64 °F76%30.13 "Hg
* Reported Aug 17 9:00 AM — Sep 1 9:00 AM, Brisbane, Weather by CustomWeather, © 2015

Note: Actual official high and low records may vary slightly from our data, if they occured in-between our weather recording intervals... More about our weather records

Advertising

Brisbane weather history for previous 24 hours

 ConditionsComfort  
Time TempWeatherWind HumidityBarometerVisibility
9:00 AM
Tue, Sep 1
64 °FSunny.9 mph40%30.04 "Hg10 mi
8:30 AM63 °FSunny.10 mph42%30.04 "Hg10 mi
8:00 AM61 °FSunny.7 mph48%30.04 "Hg10 mi
7:00 AM55 °FSunny.8 mph59%30.01 "Hg10 mi
6:30 AM52 °FSunny.7 mph67%30.01 "Hg10 mi
6:00 AM50 °FSunny.6 mph71%30.01 "Hg10 mi
5:30 AM52 °FSunny.7 mph62%29.98 "Hg10 mi
5:00 AM52 °FClear.12 mph62%29.98 "Hg10 mi
4:30 AM52 °FClear.10 mph67%29.98 "Hg10 mi
4:00 AM52 °FClear.7 mph67%29.98 "Hg10 mi
3:30 AM50 °FClear.8 mph71%29.98 "Hg10 mi
3:00 AM52 °FClear.9 mph67%29.98 "Hg10 mi
2:30 AM54 °FClear.10 mph63%29.98 "Hg10 mi
2:00 AM54 °FClear.8 mph63%29.98 "Hg10 mi
1:00 AM54 °FClear.7 mph58%29.98 "Hg10 mi
12:30 AM52 °FClear.6 mph67%29.98 "Hg10 mi
12:00 AM54 °FClear.8 mph58%30.01 "Hg10 mi
11:00 PM
Mon, Aug 31
55 °FClear.8 mph51%30.01 "Hg10 mi
10:00 PM55 °FClear.8 mph55%29.98 "Hg10 mi
9:00 PM57 °FClear.3 mph59%29.98 "Hg10 mi
8:30 PM59 °FClear.8 mph59%29.98 "Hg10 mi
8:00 PM61 °FClear.9 mph72%29.98 "Hg10 mi
7:30 PM61 °FClear.8 mph72%29.95 "Hg10 mi
7:00 PM59 °FClear.3 mph77%29.95 "Hg10 mi
6:30 PM61 °FClear.3 mph77%29.95 "Hg10 mi
6:00 PM61 °FClear.6 mph68%29.92 "Hg10 mi
5:30 PM64 °FClear.7 mph60%29.92 "Hg10 mi
5:00 PM66 °FClear.8 mph56%29.92 "Hg10 mi
4:30 PM68 °FSunny.9 mph53%29.92 "Hg10 mi
4:00 PM70 °FSunny.8 mph43%29.89 "Hg10 mi
3:30 PM70 °FSunny.8 mph46%29.92 "Hg10 mi
3:00 PM70 °FSunny.10 mph46%29.92 "Hg10 mi
2:30 PM68 °FSunny.12 mph53%29.92 "Hg10 mi
2:00 PM70 °FSunny.10 mph50%29.92 "Hg10 mi
1:30 PM68 °FSunny.10 mph49%29.92 "Hg10 mi
1:00 PM70 °FPassing clouds.9 mph35%29.95 "HgN/A
12:30 PM70 °FPassing clouds.6 mph38%29.95 "HgN/A
12:00 PM70 °FPassing clouds.9 mph40%29.95 "HgN/A
11:30 AM68 °FPassing clouds.10 mph43%29.98 "HgN/A
11:00 AM68 °FPassing clouds.9 mph43%29.98 "HgN/A
10:30 AM68 °FPassing clouds.10 mph43%30.01 "HgN/A
10:00 AM66 °FPassing clouds.14 mph46%30.01 "HgN/A
Weather by CustomWeather, © 2015

See weather overviewHow to use our weather pages